sat.trackr.live / text

‹ back to catalog

QPS-SAR-5 (TSUKUYOMI-I)

NORAD 58578 · 2023-196A

PAYLOAD ACTIVE UNKNOWN

§ Identity

Operator
Country
JPN
Launch date
2023-12-15
Launch site
RLLB
Launch vehicle
Mass (kg)
RCS (m²)

External: N2YO · Heavens-Above · Gunter

§ Orbital elements

Epoch: 2026-05-25T03:24:59.419296Z

Period
94.61 min
Inclination
42.0087°
Eccentricity
0.0024418
Mean motion
15.21979239 rev/d
Perigee alt
483.1 km
Apogee alt
516.7 km
Semi-major
6,878.0 km
B*
4.4377e-4
RAAN
147.0828°
Arg perigee
129.3123°
Mean anomaly
230.9880°
Rev number
13,473

§ Raw data

QPS-SAR-5 (TSUKUYOMI-I)1 58578U 23196A   26145.14235439  .00010192  00000+0  44377-3 0  99932 58578  42.0087 147.0828 0024418 129.3123 230.9880 15.21979239134732

JSON: /api/v1/satellites/58578 · /tle

For live sub-satellite position, see the globe view (requires WebGL).

§ Visibility from observer

Set your observer location to see the next 7 days of passes ≥ 10°. The values pass through the URL so the page stays shareable.

No JS? Fill the form by hand. The geolocation button needs JavaScript.